Weather History for Prescott, AZ

Change the Weather History Date:

Wednesday, August 7, 2013

  Actual Average Record
Temperature  
Mean Temperature 73 °F 74 °F  
Max Temperature 86 °F 87 °F 98 °F (1995)
Min Temperature 60 °F 62 °F 51 °F (1991)
Degree Days  
Heating Degree Days 0    
Month to date heating degree days 0  
Since 1 July heating degree days 0  
Cooling Degree Days 8    
Month to date cooling degree days 75  
Year to date cooling degree days 807  
Growing Degree Days 22 (Base 50)    
Moisture  
Dew Point 47 °F    
Average Humidity 43    
Maximum Humidity 73    
Minimum Humidity 23    
Precipitation  
Precipitation 0.00 in 0.09 in 1.68 in (2000)
Month to date precipitation 0.01 0.62  
Year to date precipitation 5.84 7.66  
Sea Level Pressure  
Sea Level Pressure 29.94 in    
Wind  
Wind Speed 6 mph (WSW)    
Max Wind Speed 20 mph    
Max Gust Speed 26 mph    
Visibility 10 miles    
Events      
T = Trace of Precipitation, MM = Missing Value Source: NWS Daily Summary

Daily Weather History Graph

Daily Weather History Graph

Search for Another Location

Airport:

Trip Planner

Search our weather history database for the weather conditions in past years. The results will help you decide how hot, cold, wet, or windy it might be!

Date:

Astronomy

Aug. 07, 2013 Rise Set
Actual Time 5:44 AM MST 7:25 PM MST
Civil Twilight 5:17 AM MST 7:52 PM MST
Nautical Twilight 4:44 AM MST 8:25 PM MST
Astronomical Twilight 4:09 AM MST 9:00 PM MST
Moon 6:32 AM MST (8/7) 7:41 PM MST (8/7)
Length of Visible Light 14h 35m
Length of Day
13h 41m
New Moon, 1% of the Moon is Illuminated
Aug 7
New Moon
Aug 14
First Quarter
Aug 20
Full
Aug 28
Last Quarter
Sep 5
New

Hourly Weather History & Observations

Time (MST) Temp. Dew Point Humidity Pressure Visibility Wind Dir Wind Speed Gust Speed Precip Events Conditions
12:53 AM 66.9 °F 53.1 °F 61% 29.99 in 10.0 mi North 6.9 mph - N/A   Overcast
1:53 AM 64.9 °F 55.0 °F 70% 29.99 in 10.0 mi Calm Calm - N/A   Overcast
2:53 AM 63.0 °F 53.1 °F 70% 29.99 in 10.0 mi WSW 4.6 mph - N/A   Mostly Cloudy
3:53 AM 62.1 °F 53.1 °F 72% 29.98 in 10.0 mi South 6.9 mph - N/A   Overcast
4:53 AM 63.0 °F 53.1 °F 70% 29.98 in 10.0 mi Calm Calm - N/A   Mostly Cloudy
5:53 AM 61.0 °F 52.0 °F 72% 30.00 in 10.0 mi Calm Calm - N/A   Clear
6:53 AM 63.0 °F 53.1 °F 70% 30.00 in 10.0 mi Calm Calm - N/A   Clear
7:53 AM 68.0 °F 54.0 °F 61% 30.01 in 10.0 mi Calm Calm - N/A   Clear
8:53 AM 73.0 °F 53.1 °F 49% 29.99 in 10.0 mi NNW 3.5 mph - N/A   Partly Cloudy
9:53 AM 77.0 °F 52.0 °F 42% 29.98 in 10.0 mi Variable 3.5 mph - N/A   Partly Cloudy
10:53 AM 79.0 °F 48.0 °F 34% 29.96 in 10.0 mi Variable 5.8 mph - N/A   Clear
11:53 AM 81.0 °F 46.9 °F 30% 29.95 in 10.0 mi SW 10.4 mph - N/A   Scattered Clouds
12:53 PM 82.9 °F 45.0 °F 26% 29.93 in 10.0 mi Variable 3.5 mph 17.3 mph N/A   Scattered Clouds
1:53 PM 82.9 °F 42.1 °F 24% 29.92 in 10.0 mi WNW 8.1 mph - N/A   Scattered Clouds
2:53 PM 84.9 °F 43.0 °F 23% 29.90 in 10.0 mi West 16.1 mph 23.0 mph N/A   Scattered Clouds
3:53 PM 84.0 °F 42.1 °F 23% 29.88 in 10.0 mi WSW 8.1 mph 19.6 mph N/A   Scattered Clouds
4:53 PM 84.9 °F 43.0 °F 23% 29.87 in 10.0 mi West 12.7 mph - N/A   Scattered Clouds
5:53 PM 84.0 °F 42.1 °F 23% 29.87 in 10.0 mi West 15.0 mph 19.6 mph N/A   Partly Cloudy
6:53 PM 81.0 °F 39.0 °F 22% 29.89 in 10.0 mi WSW 11.5 mph - N/A   Partly Cloudy
7:53 PM 75.9 °F 39.0 °F 26% 29.90 in 10.0 mi SW 5.8 mph - N/A   Clear
8:53 PM 73.0 °F 39.0 °F 29% 29.91 in 10.0 mi SW 4.6 mph - N/A   Clear
9:53 PM 70.0 °F 41.0 °F 35% 29.91 in 10.0 mi SSW 4.6 mph - N/A   Clear
10:53 PM 68.0 °F 41.0 °F 37% 29.91 in 10.0 mi SSW 3.5 mph - N/A   Clear
11:53 PM 66.9 °F 41.0 °F 39% 29.91 in 10.0 mi SSE 5.8 mph - N/A   Clear